n   0.20360616     Peri.  345.44713     +0.99151929     +0.12948120

a   2.8615989      Node     7.14123     -0.10847486     +0.87176743

e   0.7265753      Incl.    5.14153     -0.07157305     +0.47249991

P   4.84 (+/- 0.30 day)

From 85 observations 2004 Dec. 7-2005 Feb. 6, mean residual 0".72.



NAKANO

         **** Don't distribute anyone except personal use only ****

                (C) Copyright 2005 OAA/ComputingSection

write mail from CFAD0::NAKANO on 2005-03-05 03:18:44(JST).

 



    P/2004 X1 (LINEAR)                                                    

T 2004 Nov. 1.94248 TT                                  Nakano

q   0.7825121            (2000.0)            P               Q

n   0.20290581     Peri.  345.47877     +0.99154762     +0.12926641

a   2.8681800      Node     7.12194     -0.10829721     +0.87177776

e   0.7271747      Incl.    5.14272     -0.07144945     +0.47253966

P   4.86 (+/- 0.92 day)

From 84 observations 2004 Dec. 7-2005 Jan. 11.

NAKANO

         **** Don't distribute anyone except personal use only ****

                (C) Copyright 2005 OAA/ComputingSection

write mail from CFAD0::NAKANO on 2005-02-04 04:54:56(JST).

 



If the pre-discovery observations in 1994 October are included, T will be

2012 Dec. 7.46 TT.



    P/1994 X1 (McNaught-Russell)                                          

Epoch 2012 Dec. 19.0 TT = JDT 2456280.5  

T 2012 Dec. 4.56556 TT                                  Nakano

q   1.2799186            (2000.0)            P               Q

n   0.05399530     Peri.  171.19320     +0.86099639     -0.41122399

a   6.9326419      Node   218.01163     +0.43202164     +0.90185569

e   0.8153779      Incl.   29.07908     +0.26840736     -0.13248074

P  18.25 (+/- 0.16 day)

From 126 observations 1994 Dec. 12-1995 Apr. 17, mean residual 0".73.



NAKANO

         **** Don't distribute anyone except personal use only ****

                (C) Copyright 2005 OAA/ComputingSection

write mail from CFAD0::NAKANO on 2005-02-04 04:54:38(JST).

 

    P/2004 X1 (LINEAR)                                                    

T 2004 Nov. 1.97188 TT                                  Nakano

q   0.7826525            (2000.0)            P               Q

n   0.20169041     Peri.  345.53309     +0.99159696     +0.12889136

a   2.8796909      Node     7.08920     -0.10798619     +0.87179516

e   0.7282165      Incl.    5.14488     -0.07123516     +0.47261001

P   4.89 (+/- 3.41 day)

From 71 observations 2004 Dec. 7-31.



NAKANO

         **** Don't distribute anyone except personal use only ****

                (C) Copyright 2005 OAA/ComputingSection

write mail from CFAD0::NAKANO on 2005-01-04 01:58:32(JST).

 







◎P/2004 X1の軌道と予報位置です



 CMESに山本速報No.2452にあるとおり,周期が約5年足らずの

新周期彗星でした.



    P/2004 X1 (LINEAR)                                                    

T 2004 Nov. 1.97188 TT                                  Nakano

q   0.7826525            (2000.0)            P               Q

n   0.20169041     Peri.  345.53309     +0.99159696     +0.12889136

a   2.8796909      Node     7.08920     -0.10798619     +0.87179516

e   0.7282165      Incl.    5.14488     -0.07123516     +0.47261001

P   4.89 (+/- 3.41 day)

From 71 observations 2004 Dec. 7-31.

 

Date/        TT  R.A.(2000) Decl.     Delta   r     Daily motion  Mag.  Moon Age

              h    h  m       。  ,                      ,  / PA 。  m1      。

2005 Jan.  1 12  01 03.45  +17 46.4   0.572  1.222    90.2 /  69  17.7  142  .72

           2 12  01 09.35  +18 18.7   0.582  1.232    87.7 /  69  17.7  152  .62

           3 12  01 15.12  +18 49.4   0.594  1.243    85.2 /  70  17.8  162  .52

           4 12  01 20.77  +19 18.6   0.605  1.254    82.9 /  70  17.9  169  .42

           5 12  01 26.29  +19 46.4   0.617  1.264    80.6 /  71  18.0  167  .32

           6 12  01 31.69  +20 12.8   0.629  1.275    78.4 /  71  18.0  157  .22

           7 12  01 36.98  +20 37.9   0.642  1.286    76.2 /  72  18.1  145  .13

           8 12  01 42.14  +21 01.7   0.654  1.297    74.2 /  72  18.2  132  .06

           9 12  01 47.19  +21 24.4   0.667  1.307    72.2 /  72  18.3  118  .02

          10 12  01 52.13  +21 45.9   0.680  1.318    70.3 /  73  18.4  104  .00

          11 12  01 56.97  +22 06.4   0.694  1.329    68.5 /  73  18.4   90  .02

          12 12  02 01.70  +22 25.8   0.707  1.340    66.7 /  74  18.5   76  .06

          13 12  02 06.33  +22 44.2   0.721  1.350    65.0 /  74  18.6   63  .13

          14 12  02 10.86  +23 01.8   0.735  1.361    63.4 /  75  18.7   50  .22

          15 12  02 15.30  +23 18.4   0.750  1.372    61.9 /  75  18.7   37  .31

          16 12  02 19.65  +23 34.3   0.764  1.383    60.4 /  75  18.8   25  .42

          17 12  02 23.90  +23 49.3   0.779  1.394    59.0 /  76  18.9   15  .52

          18 12  02 28.08  +24 03.6   0.794  1.404    57.6 /  76  19.0    8  .62

          19 12  02 32.17  +24 17.3   0.809  1.415    56.3 /  77  19.0   13  .71

          20 12  02 36.18  +24 30.2   0.825  1.426    55.0 /  77  19.1   23  .80

          21 12  02 40.11  +24 42.5   0.840  1.437    53.8 /  77  19.2   34  .87

          22 12  02 43.97  +24 54.2   0.856  1.447    52.7 /  78  19.3   44  .92

          23 12  02 47.76  +25 05.4   0.872  1.458    51.6 /  78  19.3   55  .96

          24 12  02 51.48  +25 16.0   0.888  1.469    50.5 /  78  19.4   66  .99

          25 12  02 55.13  +25 26.1   0.904  1.479    49.5 /  79  19.5   77 1.00

          26 12  02 58.72  +25 35.7   0.920  1.490    48.6 /  79  19.6   88  .99

          27 12  03 02.24  +25 44.8   0.937  1.501    47.6 /  79  19.6   99  .96

          28 12  03 05.71  +25 53.5   0.953  1.511    46.8 /  80  19.7  110  .91

          29 12  03 09.12  +26 01.8   0.970  1.522    45.9 /  80  19.8  122  .85

          30 12  03 12.48  +26 09.8   0.987  1.533    45.1 /  80  19.8  133  .78

          31 12  03 15.79  +26 17.3   1.004  1.543    44.3 /  80  19.9  145  .69

     Feb.  1 12  03 19.04  +26 24.5   1.021  1.554    43.6 /  81  20.0  157  .59

NAKANO

         **** Don't distribute anyone except personal use only ****

                (C) Copyright 2005 OAA/ComputingSection

write mail from CFAD0::NAKANO on 2005-01-03 05:37:09(JST).

 



戻ります。